Regional Weather Roundup
Issued by NWS New Orleans/Baton Rouge, LA

Home | Current Version | Previous Version | Text Only | Print | Product List | Glossary On
Versions: 1 2 3 4 5 6 7 8 9 10 11 12 13 14 15 16 17 18 19 20 21 22 23 24 25 26 27
000
ASUS44 KLIX 300211
RWRLIX
NEW ORLEANS REGIONAL WEATHER ROUNDUP
NATIONAL WEATHER SERVICE NEW ORLEANS LA
900 PM CDT FRI APR 29 2016

NOTE: "FAIR" INDICATES FEW OR NO CLOUDS BELOW 12,000 FEET WITH NO
      SIGNIFICANT WEATHER AND/OR OBSTRUCTIONS TO VISIBILITY.
      SKY/WX - SKY CONDITION AND SIGNIFICANT WEATHER.
      TMP - AIR TEMPERATURE.     DP    - DEWPOINT TEMPERATURE.
      RH  - RELATIVE HUMIDITY.   PRES  - PRESSURE.
      HI  - HEAT INDEX.          WCI   - WIND CHILL INDEX.

*  THESE STATIONS ARE NOT NWS OR FAA STATIONS AND ARE NOT UNDER
   NWS QUALITY CONTROL.

LAZ038-040-048-061>063-065>067-069-300300-
SOUTHEAST LOUISIANA

CITY           SKY/WX    TMP DP  RH WIND       PRES   REMARKS
N.O. AUDUBON     N/A     78  73  83 MISG        N/A
N.O. INTL ARPT CLOUDY    78  71  79 SE12      29.85S
N.O. LAKEFRONT PTCLDY    74  74 100 SE10      29.85F
N.O. DOWNTOWN*   N/A     79  72  79 VRB7      29.86S
RESERVE*         N/A     78  73  83 SE9       29.84R
SLIDELL        CLOUDY    76  74  93 SE7       29.85F
BATON ROUGE    MOCLDY    79  68  69 SE10      29.82R
BOOTHVILLE     CLOUDY    73  72  96 SE7       29.86F
BELLE CHASSE   CLOUDY    77  72  84 SE13      29.85F
BOGALUSA*        N/A     77  70  80 SE7       29.88S
GALLIANO*      CLOUDY    77  73  85 SE6       29.85S
NEW ROADS*       N/A     77  69  76 SE8       29.82R
GONZALES*      MOCLDY    78  71  79 SE8       29.82R
HAMMOND*       PTCLDY    75  70  83 SE6       29.85R
HOUMA*         CLOUDY    76  73  89 SE9       29.83S
PORT FOURCHON* PTCLDY    77  73  88 SE14G21   29.85S

$$

MSZ070-080>082-300300-
SOUTHERN MISSISSIPPI

CITY           SKY/WX    TMP DP  RH WIND       PRES   REMARKS
MCCOMB         CLOUDY    75  71  87 SE9       29.85S
GULFPORT       CLOUDY    76  73  91 SE14      29.88F
BILOXI         CLOUDY    76  76  99 SE12      29.89S
PASCAGOULA     PTCLDY    75  73  93 SE8       29.92R
STENNIS ARPT*  PTCLDY    73  70  88 SE7       29.88S

$$

COASTAL OBSERVATIONS
LAKE AND NEARSHORE STATIONS

STATION/POSITION TIME  TEMP    WIND        PRES    WAVE
                       AIR SEA DIR/SP/G            HT/PER
                 (UTC) (F)     (DEG/KT/KT) (MB)    (FT/S)
PASCAGOULA       0100   77                 1012.0
WAVELAND YACHT   0100   76 77              1011.8
GRAND ISLE       0100   77 77              1010.9
SOUTHWEST PASS   0100          130/ 10/ 14   N/A
NEW CANAL        0100   79 76              1010.2
SHELL BEACH      0100   76 78              1011.4

OFFSHORE STATIONS

STATION/POSITION TIME  TEMP    WIND        PRES    WAVE
                       AIR SEA DIR/SP/G            HT/PER
                 (UTC) (F)     (DEG/KT/KT) (MB)    (FT/S)
64 S DAUPHIN ISL 0100   75 74  130/  8/ 10 1012.0

$$





USA.gov is the U.S. government's official web portal to all federal, state and local government web resources and services.